Location: Curupao
(10.4996°N, 66.6442°W)
Time: 11:57:50
(UTC+00:00)

Cosmos 2219 Rocket - Pass Details

Date: 23 May 2024
Orbit: 826 x 847 km, 71.0° (Epoch: 20 June)

Event Time Altitude Azimuth Distance (km) Brightness Sun altitude
Rises 08:48:15 0° 338° (NNW) 3,390 5.4 -17.9°
Reaches altitude 10° 08:50:42 10° 334° (NNW) 2,457 4.6 -17.3°
Maximum altitude 08:56:16 61° 255° (WSW) 954 2.2 -16.1°
Drops below altitude 10° 09:01:50 10° 176° (S) 2,462 4.4 -14.8°
Sets 09:04:18 0° 172° (S) 3,397 5.2 -14.3°
